sat.trackr.live / text

‹ back to catalog

KUIPER-00037

NORAD 63749 · 2025-088AB

PAYLOAD ACTIVE UNKNOWN

§ Identity

Operator
Country
US
Launch date
2025-04-28
Launch site
AFETR
Launch vehicle
Mass (kg)
RCS (m²)

External: N2YO · Heavens-Above · Gunter

§ Orbital elements

Epoch: 2026-05-25T04:23:33.424800Z

Period
97.13 min
Inclination
51.8979°
Eccentricity
0.0001413
Mean motion
14.82622625 rev/d
Perigee alt
620.1 km
Apogee alt
622.0 km
Semi-major
6,999.2 km
B*
-1.4330e-2
RAAN
133.7240°
Arg perigee
344.9411°
Mean anomaly
15.1511°
Rev number
5,965

§ Raw data

KUIPER-000371 63749U 25088AB  26145.18302575 -.00114785  00000+0 -14330-1 0  99902 63749  51.8979 133.7240 0001413 344.9411  15.1511 14.82622625 59652

JSON: /api/v1/satellites/63749 · /tle

For live sub-satellite position, see the globe view (requires WebGL).

§ Visibility from observer

Set your observer location to see the next 7 days of passes ≥ 10°. The values pass through the URL so the page stays shareable.

No JS? Fill the form by hand. The geolocation button needs JavaScript.